{"data":{"norad_id":56061,"epoch":"2026-09-20T04:44:24.427680Z","epoch_age_seconds":44433,"freshness":"FRESH","line1":"1 56061U 23043R   26263.19750495 -.00000011  00000+0 -58081-4 0  9998","line2":"2 56061  87.9287 225.0621 0001906  70.9685 289.1655 13.21826603170781","mean_motion":13.21826603,"eccentricity":0.0001906,"inclination_deg":87.9287,"raan_deg":225.0621,"arg_perigee_deg":70.9685,"mean_anomaly_deg":289.1655,"bstar":-5.8081e-5,"rev_number":17078,"period_min":108.9401587721,"perigee_km":1176.3109181693,"apogee_km":1179.1912227017,"semimajor_km":7555.8880704355,"source":"CELESTRAK","updated_at":"2026-09-20T09:00:44.789500Z"}}